Regional Weather Roundup
Issued by NWS

Home | Current Version | Previous Version | Graphics & Text | Print | Product List | Glossary On
Versions: 1 2 3 4 5 6 7 8 9 10 11 12 13 14 15 16 17 18 19 20 21 22 23 24 25 26 27 28 29 30 31 32 33 34 35 36 37 38 39 40 41 42 43 44 45 46 47 48 49 50
000
ASUS43 KLMK 101410
RWRKY
KENTUCKY REGIONAL WEATHER ROUNDUP
NATIONAL WEATHER SERVICE LOUISVILLE KY
900 AM EST SUN DEC 10 2017

NOTE "FAIR" INDICATES FEW OR NO CLOUDS BELOW 12,000 FEET
WITH NO SIGNIFICANT WEATHER AND/OR OBSTRUCTIONS TO VISIBILITY.

KYZ001>023-026-027-061>063-070>075-101500-
WESTERN AND SOUTH CENTRAL KENTUCKY

CITY           SKY/WX    TMP DP  RH WIND       PRES   REMARKS
PADUCAH        CLEAR     27  17  66 SW8       30.22F WCI  19
HENDERSON      NOT AVBL
OWENSBORO      SUNNY     26  20  77 S8        30.21F WCI  18
HOPKINSVILLE   SUNNY     28  20  73 S5        30.24S WCI  22
BOWLING GREEN  CLOUDY    26  19  74 SW6       30.25F WCI  19
GLASGOW        SUNNY     24  19  81 CALM      30.24R
$$

KYZ024-025-028>034-038-045-046-053-101500-
NORTH CENTRAL KENTUCKY

CITY           SKY/WX    TMP DP  RH WIND       PRES   REMARKS
LOUISVILLE/SDF CLOUDY    27  17  66 SW8       30.18F WCI  19
LOUISVILLE/LOU CLOUDY    27  20  75 S8        30.19F WCI  19
FORT KNOX      CLOUDY    24  18  77 S7        30.16F WCI  16
$$

KYZ035>037-039>044-047>052-055>060-089>105-101500-
NORTHEAST KENTUCKY

CITY           SKY/WX    TMP DP  RH WIND       PRES   REMARKS
LEXINGTON      MOSUNNY   22  16  78 S8        30.18S WCI  12
COVINGTON      CLOUDY    23  17  78 SW9       30.11F WCI  13
FRANKFORT      MOSUNNY   23  15  71 SW6       30.17S WCI  16
$$

KYZ054-064>069-076>088-106>120-101500-
SOUTHEAST KENTUCKY

CITY           SKY/WX    TMP DP  RH WIND       PRES   REMARKS
JACKSON        SUNNY     26  17  68 MISG      30.17S
LONDON         SUNNY     24  17  74 SW6       30.21R WCI  17
SOMERSET       MOSUNNY   25  19  80 S5        30.25S WCI  19
MIDDLESBORO    SUNNY     26  18  74 CALM      30.24S
MONTICELLO     MOSUNNY   25  23  92 NW8       30.26R WCI  16
$$





USA.gov is the U.S. government's official web portal to all federal, state and local government web resources and services.